EN

Hourly Weather Tonkeris

Today, 15 April, Thursday

Time Temperature Precipitation Wind Pressure Humidity
00:00 +12°C° 0 mm 3 mps 708 mmHg 45%
01:00 +12°C° 0 mm 3 mps 708 mmHg 45%
02:00 +13°C° 0 mm 2 mps 707 mmHg 45%
03:00 +12°C° 0 mm 2 mps 707 mmHg 44%
04:00 +12°C° 0 mm 2 mps 707 mmHg 44%
05:00 +10°C° 0 mm 2 mps 707 mmHg 43%
06:00 +13°C° 0 mm 2 mps 707 mmHg 41%
07:00 +14°C° 0 mm 1 mps 707 mmHg 39%
08:00 +15°C° 0 mm 1 mps 708 mmHg 38%
09:00 +17°C° 0 mm 2 mps 708 mmHg 36%
10:00 +19°C° 0 mm 2 mps 708 mmHg 35%
11:00 +20°C° 0 mm 2 mps 708 mmHg 34%
12:00 +21°C° 0 mm 2 mps 708 mmHg 31%
13:00 +23°C° 0 mm 2 mps 707 mmHg 29%
14:00 +24°C° 0 mm 2 mps 707 mmHg 26%
15:00 +24°C° 0 mm 2 mps 707 mmHg 27%
16:00 +24°C° 0 mm 2 mps 707 mmHg 27%
17:00 +24°C° 0 mm 2 mps 707 mmHg 28%
18:00 +21°C° 0 mm 2 mps 707 mmHg 31%
19:00 +19°C° 0 mm 2 mps 707 mmHg 34%
20:00 +17°C° 0 mm 2 mps 708 mmHg 38%
21:00 +16°C° 0 mm 2 mps 707 mmHg 38%
22:00 +16°C° 0 mm 2 mps 707 mmHg 38%
23:00 +15°C° 0 mm 2 mps 707 mmHg 38%

Tomorrow, 16 April, Friday

Time Temperature Precipitation Wind Pressure Humidity
00:00 +15°C° 0 mm 2 mps 707 mmHg 37%
01:00 +15°C° 0 mm 2 mps 706 mmHg 36%
02:00 +15°C° 0 mm 2 mps 706 mmHg 36%
03:00 +14°C° 0 mm 2 mps 706 mmHg 36%
04:00 +14°C° 0 mm 2 mps 706 mmHg 36%
05:00 +14°C° 0 mm 1 mps 706 mmHg 36%
06:00 +15°C° 0 mm 1 mps 707 mmHg 35%
07:00 +16°C° 0 mm 1 mps 707 mmHg 33%
08:00 +17°C° 0 mm 2 mps 707 mmHg 32%
09:00 +20°C° 0 mm 1 mps 708 mmHg 30%
10:00 +21°C° 0 mm 1 mps 708 mmHg 29%
11:00 +22°C° 0 mm 1 mps 708 mmHg 27%
12:00 +23°C° 0 mm 1 mps 707 mmHg 27%
13:00 +24°C° 0 mm 1 mps 707 mmHg 27%
14:00 +24°C° 0 mm 2 mps 707 mmHg 27%
15:00 +24°C° 0 mm 1 mps 707 mmHg 29%
16:00 +23°C° 0 mm 1 mps 707 mmHg 31%
17:00 +23°C° 0 mm 1 mps 707 mmHg 33%
18:00 +22°C° 0 mm 1 mps 707 mmHg 36%
19:00 +20°C° 0 mm 1 mps 708 mmHg 39%
20:00 +19°C° 0 mm 1 mps 708 mmHg 43%
21:00 +17°C° 0.1 mm 2 mps 708 mmHg 47%
22:00 +17°C° 0.1 mm 2 mps 708 mmHg 51%
23:00 +16°C° 0.1 mm 3 mps 708 mmHg 55%

Day after tomorrow, 17 April, Saturday

Time Temperature Precipitation Wind Pressure Humidity
00:00 +16°C° 0.2 mm 3 mps 707 mmHg 59%
01:00 +14°C° 0.2 mm 3 mps 707 mmHg 63%
02:00 +14°C° 0.2 mm 3 mps 707 mmHg 66%
03:00 +14°C° 0 mm 3 mps 707 mmHg 64%
04:00 +15°C° 0 mm 2 mps 707 mmHg 61%
05:00 +15°C° 0 mm 2 mps 707 mmHg 59%
06:00 +16°C° 0 mm 2 mps 708 mmHg 56%
07:00 +17°C° 0 mm 2 mps 708 mmHg 53%
08:00 +18°C° 0 mm 2 mps 708 mmHg 50%
09:00 +19°C° 0 mm 2 mps 709 mmHg 46%
10:00 +20°C° 0 mm 3 mps 709 mmHg 43%
11:00 +21°C° 0 mm 3 mps 709 mmHg 39%
12:00 +21°C° 0 mm 3 mps 709 mmHg 38%
13:00 +22°C° 0 mm 3 mps 708 mmHg 37%
14:00 +22°C° 0 mm 3 mps 708 mmHg 36%
15:00 +22°C° 0 mm 3 mps 708 mmHg 37%
16:00 +22°C° 0 mm 3 mps 708 mmHg 38%
17:00 +22°C° 0 mm 3 mps 708 mmHg 38%
18:00 +20°C° 0 mm 3 mps 709 mmHg 42%
19:00 +19°C° 0 mm 2 mps 709 mmHg 45%
20:00 +18°C° 0 mm 2 mps 709 mmHg 48%
21:00 +17°C° 0 mm 2 mps 709 mmHg 50%
22:00 +16°C° 0 mm 2 mps 709 mmHg 52%
23:00 +16°C° 0 mm 2 mps 709 mmHg 54%

18 April, Sunday

Time Temperature Precipitation Wind Pressure Humidity
00:00 +15°C° 0 mm 2 mps 709 mmHg 54%
01:00 +15°C° 0 mm 2 mps 708 mmHg 54%
02:00 +14°C° 0 mm 2 mps 708 mmHg 54%
03:00 +14°C° 0 mm 2 mps 708 mmHg 54%
04:00 +14°C° 0 mm 2 mps 708 mmHg 54%
05:00 +14°C° 0 mm 2 mps 708 mmHg 53%
06:00 +15°C° 0 mm 1 mps 709 mmHg 50%
07:00 +16°C° 0 mm 1 mps 709 mmHg 47%
08:00 +19°C° 0 mm 1 mps 709 mmHg 44%
09:00 +19°C° 0 mm 2 mps 709 mmHg 42%
10:00 +20°C° 0 mm 2 mps 709 mmHg 39%
11:00 +20°C° 0 mm 2 mps 709 mmHg 36%
12:00 +21°C° 0.1 mm 3 mps 709 mmHg 36%
13:00 +21°C° 0.1 mm 4 mps 709 mmHg 36%
14:00 +21°C° 0.1 mm 4 mps 709 mmHg 35%
15:00 +20°C° 0.1 mm 5 mps 709 mmHg 40%
16:00 +19°C° 0.1 mm 5 mps 709 mmHg 44%
17:00 +17°C° 0.1 mm 6 mps 710 mmHg 48%
18:00 +16°C° 0.2 mm 5 mps 710 mmHg 53%
19:00 +15°C° 0.2 mm 5 mps 710 mmHg 57%
20:00 +14°C° 0.2 mm 5 mps 710 mmHg 62%
21:00 +14°C° 0.1 mm 4 mps 710 mmHg 58%
22:00 +14°C° 0.1 mm 3 mps 710 mmHg 53%
23:00 +15°C° 0.1 mm 2 mps 709 mmHg 49%

19 April, Monday

Time Temperature Precipitation Wind Pressure Humidity
00:00 +14°C° 0 mm 2 mps 709 mmHg 49%
01:00 +14°C° 0 mm 2 mps 709 mmHg 49%
02:00 +13°C° 0 mm 2 mps 708 mmHg 48%
03:00 +13°C° 0 mm 2 mps 708 mmHg 48%
04:00 +12°C° 0 mm 2 mps 708 mmHg 47%
05:00 +12°C° 0 mm 2 mps 708 mmHg 46%
06:00 +14°C° 0 mm 1 mps 708 mmHg 42%
07:00 +16°C° 0 mm 1 mps 708 mmHg 37%
08:00 +19°C° 0 mm 1 mps 708 mmHg 33%
09:00 +20°C° 0 mm 1 mps 708 mmHg 31%
10:00 +20°C° 0 mm 2 mps 707 mmHg 30%
11:00 +21°C° 0 mm 2 mps 707 mmHg 29%
12:00 +23°C° 0 mm 2 mps 706 mmHg 28%
13:00 +23°C° 0 mm 2 mps 706 mmHg 27%
14:00 +24°C° 0 mm 3 mps 705 mmHg 26%
15:00 +22°C° 0 mm 3 mps 705 mmHg 29%
16:00 +23°C° 0 mm 2 mps 704 mmHg 31%
17:00 +21°C° 0 mm 2 mps 704 mmHg 33%
18:00 +20°C° 0 mm 2 mps 704 mmHg 36%
19:00 +18°C° 0 mm 3 mps 704 mmHg 39%
20:00 +17°C° 0 mm 3 mps 704 mmHg 42%
21:00 +16°C° 0 mm 3 mps 703 mmHg 41%
22:00 +16°C° 0 mm 3 mps 702 mmHg 40%
23:00 +14°C° 0 mm 3 mps 701 mmHg 40%

20 April, Tuesday

Time Temperature Precipitation Wind Pressure Humidity
00:00 +14°C° 0 mm 3 mps 701 mmHg 40%
01:00 +14°C° 0 mm 4 mps 700 mmHg 41%
02:00 +14°C° 0 mm 4 mps 699 mmHg 41%
03:00 +14°C° 0 mm 4 mps 699 mmHg 42%
04:00 +13°C° 0 mm 4 mps 698 mmHg 43%
05:00 +13°C° 0 mm 3 mps 698 mmHg 44%
06:00 +14°C° 0 mm 3 mps 698 mmHg 44%
07:00 +16°C° 0 mm 3 mps 699 mmHg 44%
08:00 +17°C° 0 mm 3 mps 699 mmHg 44%
09:00 +18°C° 0 mm 4 mps 699 mmHg 43%
10:00 +19°C° 0 mm 6 mps 700 mmHg 42%
11:00 +20°C° 0 mm 7 mps 700 mmHg 41%
12:00 +20°C° 0 mm 6 mps 700 mmHg 43%
13:00 +19°C° 0 mm 6 mps 701 mmHg 45%
14:00 +19°C° 0 mm 5 mps 701 mmHg 48%
15:00 +16°C° 3.5 mm 5 mps 702 mmHg 58%
16:00 +13°C° 3.5 mm 5 mps 704 mmHg 69%
17:00 +9°C° 3.5 mm 5 mps 706 mmHg 79%
18:00 +8°C° 0.9 mm 5 mps 707 mmHg 79%
19:00 +8°C° 0.9 mm 5 mps 708 mmHg 78%
20:00 +8°C° 0.9 mm 5 mps 709 mmHg 77%
21:00 +6°C° 0.8 mm 5 mps 710 mmHg 77%
22:00 +5°C° 0.8 mm 5 mps 711 mmHg 77%
23:00 +3°C° 0.8 mm 5 mps 712 mmHg 78%
Show more

We Need Your Consent

Meteoprog and our Service Providers may store and access personal data such as cookies, device identifiers or other similar technologies on your device and process such data to personalise content and ads, as well as provide social media features and to analyse the traffic.

  • Store and/or access information on your device

    Cookies, device identifiers or other information can be stored or accessed on your device for the purposes indicated above.

  • Personalised ads and content, ad and content measurement, audience insights, and products development

    Ads and content can be personalised based on a profile. More data can be added to better personalise ads and content. Ad and content performance can be measured. Insights about the audience who saw the ads and content can be derived. Such data can be used to develop or improve user’s experience, systems and software.

By clicking ‘I Agree’ you will allow the use of indicated cookies, device identifiers, web beacons or other similar technologies. Your settings can be changed in the browser on your device.

For certain purposes, legitimate interests may be relied on, rather than consent. You can read more about this in our Privacy and Cookie Policy.